logo
App data

Starscape

Moonpod's Starscape mixes old school arcade game play values with characterization and an involving plot to deepen the whole experience. With most of its crew missing and its weapons systems ruined, the space research station Aegis is all but lost.
Store | Hub | SteamDB | Site
Developer: Moonpod Publisher: Moonpod
Genre: Action, Indie, Strategy
Languages: English
Tags: Action (26), Indie (23), Strategy (21), Space (6), Top-Down (5)
Category: Single-player, Steam Achievements
Release date: Nov 3, 2008
Price: $7.99
Score rank: 47% Userscore: 78% Old userscore: 76%
Owners: 0 .. 20,000
Peak concurrent players yesterday: 2
Playtime total: 04:12 (average) 03:51 (median)

Steam Spy is still in beta, so expect major bugs.

Owners data:

Access restricted.

This feature is only available to users with special access rights. Sorry.

If you want to proceed, you need to register or log in first and then back Steam Spy on Patreon. Look for Indie or Pro pledge.

Don't forget to use the same email as on Steam Spy!

Audience in 2 weeks:

Access restricted.

This feature is only available to users with special access rights. Sorry.

If you want to proceed, you need to register or log in first and then back Steam Spy on Patreon. Look for Indie or Pro pledge.

Don't forget to use the same email as on Steam Spy!

Peak daily concurrent players:

CCU data courtesy of SteamDB. Used with permission.

Hourly concurrent players:

Daily Twitch stats:

Hourly Twitch stats:

YouTube:

The views data is based on top 50 videos uploaded last week. Actual number of views might be more than the number shown.

The displayed number of videos uploaded yesterday is limited to 50, so if there were more videos uploaded, the number will still show 50.

If the game has commonly used word as its name (like "FEAR" or "Volume") its number of Youtube views might be wrong.

Games similar to this one:

# Game Release date
Price
Score rank
(Userscore / Metascore)
Owners
Players
Playtime (Median)
1 Little Big Adventure 2 Oct 20, 2015 $3.9999% (98%)20,000 .. 50,0000%00:00 (00:00)
2 Dungeon Warfare Nov 4, 2015 $9.9997% (97%)20,000 .. 50,0001.3%00:23 (00:07)
3 Seven Kingdoms: Ancient Adversaries Mar 22, 2016 $5.99N/A (N/A)0 .. 20,0000%00:00 (00:00)
4 Militia Dec 2, 2015 $5.9995% (96%)0 .. 20,0000%00:00 (00:00)
5 Defend The Highlands Nov 6, 2015 $9.99N/A (N/A)100,000 .. 200,0000%00:00 (00:00)
6 Voodoo Vince: Remastered Apr 17, 2017 $14.9995% (96%/63%)0 .. 20,0000%00:00 (00:00)
7 Imperium Galactica Jan 19, 2017 $4.99N/A (N/A)0 .. 20,0000%00:00 (00:00)
8 Flywrench Aug 24, 2015 $6.9993% (95%)0 .. 20,0000%00:00 (00:00)
9 Chicken Invaders 2 Mar 4, 2016 $3.9993% (95%)0 .. 20,0003.23%04:40 (01:33)
10 Templar Battleforce Sep 21, 2015 $9.9993% (95%)20,000 .. 50,0000%00:00 (00:00)
11 Supercharged Robot VULKAISER Jun 4, 2015 $4.9993% (95%)20,000 .. 50,0000%00:00 (00:00)
12 Hegemony Gold: Wars of Ancient Greece Mar 30, 2012 $14.9993% (95%)20,000 .. 50,0000%00:00 (00:00)
13 Adventure in the Tower of Flight Dec 23, 2015 $4.99N/A (N/A)0 .. 20,0000%00:00 (00:00)
14 Majesty Gold HD Sep 4, 2009 $9.9990% (94%)100,000 .. 200,0000%00:00 (00:00)
15 Gold Rush! Classic Jul 25, 2014 $2.99N/A (N/A)200,000 .. 500,0000.4%03:42 (03:36)
16 Stick it to The Man! Dec 13, 2013 $7.9990% (94%/83%)20,000 .. 50,0000%00:00 (00:00)
17 Audio Arena Jul 25, 2016 $6.99N/A (N/A)0 .. 20,0000%00:00 (00:00)
18 Star Trek: Judgment Rites May 8, 2015 $9.99N/A (N/A)0 .. 20,0000%00:00 (00:00)
19 ESCHATOS Sep 18, 2015 $14.9990% (94%)0 .. 20,0000%00:00 (00:00)
20 Neon Chrome Apr 28, 2016 $14.9990% (94%/74%)200,000 .. 500,0000.52%00:24 (00:15)
21 PixelJunk Shooter Nov 11, 2013 $8.9990% (94%/73%)100,000 .. 200,0000%00:00 (00:00)
22 Outcast 1.1 Dec 18, 2014 $5.9990% (94%)20,000 .. 50,0000%00:00 (00:00)
23 Major Mayhem Feb 24, 2014 $4.99N/A (N/A)20,000 .. 50,0000%00:00 (00:00)
24 Kick Ass Commandos Nov 17, 2016 $4.9987% (93%)20,000 .. 50,0000%00:00 (00:00)
25 Kalimba Apr 22, 2015 $9.9987% (93%/81%)0 .. 20,0000%00:00 (00:00)
26 Pharaoh Rebirth+ Mar 17, 2016 $9.9987% (93%)0 .. 20,0007.14%10:27 (03:29)
27 Anarcute Jul 12, 2016 $14.9987% (93%/79%)0 .. 20,0000%00:00 (00:00)
28 Super Trench Attack! Jul 24, 2014 $4.9987% (93%)50,000 .. 100,0000.47%00:01 (00:00)
29 Bleed Jul 3, 2013 $1.9987% (93%)100,000 .. 200,0001.13%04:57 (03:18)
30 Handsome Mr. Frog Aug 8, 2016 $0.9987% (93%)0 .. 20,0000%00:00 (00:00)
31 Run or Die Dec 11, 2014 $4.9987% (93%)0 .. 20,0000%00:00 (00:00)
32 Eufloria HD Oct 14, 2014 $14.9987% (93%)200,000 .. 500,0000%00:00 (00:00)
33 Miracle Fly Oct 26, 2015 $7.99N/A (N/A)20,000 .. 50,0000%00:00 (00:00)
34 Tallowmere Mar 3, 2015 $3.9983% (92%)20,000 .. 50,0002.17%00:29 (00:09)
35 Counter Spell Oct 5, 2015 $9.9983% (92%)0 .. 20,00025%00:07 (00:03)
36 Wars and Warriors: Joan of Arc Sep 3, 2015 $6.9983% (92%/60%)0 .. 20,0000%00:00 (00:00)
37 Ys VI: The Ark of Napishtim Apr 28, 2015 $19.9983% (92%/76%)50,000 .. 100,0001.08%02:58 (00:59)
38 Ittle Dew Jul 23, 2013 $9.9983% (92%/67%)100,000 .. 200,0000.41%00:08 (00:02)
39 Knightmare Tower Jun 16, 2014 $3.9983% (92%)0 .. 20,0000%00:00 (00:00)
40 Great Big War Game Aug 28, 2012 $6.99N/A (N/A)0 .. 20,0000%00:00 (00:00)
41 Death Ray Manta SE Sep 17, 2015 $1.9983% (92%)20,000 .. 50,0000%00:00 (00:00)
42 Shmups Skill Test シューティング技能検定 Jun 9, 2016 $4.99N/A (N/A)0 .. 20,0000%00:00 (00:00)
43 Darknet Jun 8, 2017 $14.9983% (92%)0 .. 20,0000%00:00 (00:00)
44 Blue Estate The Game Apr 8, 2015 $12.9979% (91%/59%)50,000 .. 100,0000%00:00 (00:00)
45 Below Kryll Sep 7, 2015 $4.9979% (91%)0 .. 20,0000%00:00 (00:00)
46 Dandy: Or a Brief Glimpse Into the Life of the Candy Alchemist Aug 4, 2015 $9.99N/A (N/A)0 .. 20,0000%00:00 (00:00)
47 Codename: Panzers, Phase Two Feb 18, 2016 $14.9979% (91%/80%)0 .. 20,0000%00:00 (00:00)
48 Mad Bullets Jun 10, 2016 $2.9979% (91%)0 .. 20,0000%00:00 (00:00)
49 Near Death Aug 2, 2016 $14.9979% (91%/70%)20,000 .. 50,0000%00:00 (00:00)
50 The Juicer Sep 11, 2015 $0.9979% (91%)20,000 .. 50,0000%00:00 (00:00)
51 Momodora III Jul 1, 2014 $1.9979% (91%)50,000 .. 100,0002.88%02:21 (02:21)
52 Weird Hero Nov 18, 2016 $3.9979% (91%)0 .. 20,0000%00:00 (00:00)
53 Battle Academy 2: Eastern Front Sep 12, 2014 $39.9979% (91%/78%)0 .. 20,0000%00:00 (00:00)
54 Skulls of the Shogun Jul 29, 2013 $9.9979% (91%/72%)100,000 .. 200,0000%00:00 (00:00)
55 Super Cyborg Jul 8, 2015 $4.9979% (91%)20,000 .. 50,0000%00:00 (00:00)
56 Kohan II: Kings of War Aug 24, 2011 $9.9979% (91%/81%)20,000 .. 50,0000%00:00 (00:00)
57 Apocalypse: Party's Over May 30, 2016 $4.9979% (91%)0 .. 20,0000%00:00 (00:00)
58 Angry Video Game Nerd II: ASSimilation Mar 29, 2016 $9.9979% (91%)20,000 .. 50,0000%00:00 (00:00)
59 Clash of Puppets Dec 16, 2014 $4.99N/A (N/A)0 .. 20,0000%00:00 (00:00)
60 Warrior Kings: Battles May 6, 2014 $9.9979% (91%/64%)0 .. 20,00010%00:56 (00:28)
61 Sneaky Sneaky Nov 12, 2014 $4.9976% (90%/63%)0 .. 20,0000%00:00 (00:00)
62 Planet of the Eyes Aug 24, 2015 $9.9976% (90%/66%)50,000 .. 100,0000%00:00 (00:00)
63 Ace of Seafood Apr 8, 2016 $11.9976% (90%)0 .. 20,0000%00:00 (00:00)
64 Death's Hangover Jan 20, 2017 $4.9976% (90%)20,000 .. 50,0000.99%00:10 (00:03)
65 Superstatic Sep 15, 2015 $4.99N/A (N/A)0 .. 20,0001.85%00:01 (00:00)
66 RIVE: Wreck, Hack, Die, Retry! Sep 13, 2016 $14.9976% (90%)200,000 .. 500,0000.4%01:47 (01:11)
67 Warhammer 40,000: Dawn of War – Winter Assault Aug 7, 2007 $12.9976% (90%)500,000 .. 1,000,0000.13%00:12 (00:04)
68 Swords and Soldiers HD Dec 2, 2010 $9.9976% (90%)100,000 .. 200,0000.17%04:58 (06:36)
69 Valley Aug 24, 2016 $19.9976% (90%)200,000 .. 500,0001.9%00:23 (00:30)
70 MoonBase Commander Feb 6, 2014 $5.9976% (90%/77%)0 .. 20,0000%00:00 (00:00)
71 Wild Guns Reloaded Jul 11, 2017 $14.9976% (90%)0 .. 20,0000%00:00 (00:00)
72 Khet 2.0 Oct 1, 2014 $2.4976% (90%)50,000 .. 100,0000%00:00 (00:00)
73 System Crash Aug 1, 2016 $14.9976% (90%)0 .. 20,0000%00:00 (00:00)
74 Earth Defense Force: Insect Armageddon Dec 14, 2011 $9.9976% (90%/69%)50,000 .. 100,0000%00:00 (00:00)
75 Zombo Buster Rising Oct 2, 2016 $1.9976% (90%)0 .. 20,0000%00:00 (00:00)
76 Headlander Jul 25, 2016 $19.9976% (90%/74%)50,000 .. 100,0000%00:00 (00:00)
77 Amaranthine Apr 6, 2016 $2.99N/A (N/A)0 .. 20,0000%00:00 (00:00)
78 Tcheco in the Castle of Lucio Jun 22, 2015 $0.9973% (89%)50,000 .. 100,0000.41%05:00 (01:40)
79 Armed with Wings: Rearmed Jun 1, 2017 $9.9973% (89%)20,000 .. 50,0000%00:00 (00:00)
80 Lethe - Episode One Aug 1, 2016 $14.9973% (89%)0 .. 20,0000%00:00 (00:00)
81 Reverse Crawl Sep 24, 2015 $5.9973% (89%)20,000 .. 50,0000%00:00 (00:00)
82 Silent Storm Gold Edition Oct 2, 2013 $9.9973% (89%/83%)100,000 .. 200,0000%00:00 (00:00)
83 Fort Meow Jun 24, 2015 $7.9973% (89%)0 .. 20,0000%00:00 (00:00)
84 CastleStorm Jul 29, 2013 $9.9973% (89%/73%)100,000 .. 200,0000%00:00 (00:00)
85 Viking Squad Oct 4, 2016 $14.9970% (88%)0 .. 20,0000%00:00 (00:00)
86 Anodyne Mar 22, 2013 $9.9970% (88%/75%)100,000 .. 200,0000.39%03:33 (01:11)
87 Battlepillars Gold Edition Apr 28, 2014 $4.9970% (88%)20,000 .. 50,0003.17%04:45 (03:10)
88 Greed Corp Dec 10, 2010 $9.9970% (88%/76%)200,000 .. 500,0000%00:00 (00:00)
89 The Fall May 30, 2014 $9.9970% (88%/76%)200,000 .. 500,0000%00:00 (00:00)
90 Mr. Shifty Apr 13, 2017 $14.9970% (88%)50,000 .. 100,0000.66%02:29 (02:08)
91 Atom Zombie Smasher Mar 14, 2011 $9.9970% (88%/75%)200,000 .. 500,0000.56%00:36 (00:15)
92 TRON 2.0 Oct 10, 2014 $9.9970% (88%/84%)20,000 .. 50,0003.23%00:02 (00:01)
93 Kohan: Ahriman's Gift Aug 24, 2011 $9.99N/A (N/A/79%)0 .. 20,0000%00:00 (00:00)
94 Explosionade Sep 23, 2015 $3.99N/A (N/A)0 .. 20,0000%00:00 (00:00)
95 Earn to Die 2 May 5, 2016 $4.9970% (88%)20,000 .. 50,0000%00:00 (00:00)
96 Time Rifters Oct 21, 2014 $9.9967% (87%)0 .. 20,0009.38%02:15 (02:14)
97 Sang-Froid - Tales of Werewolves Apr 5, 2013 Free67% (87%/79%)200,000 .. 500,0000%00:00 (00:00)
98 Lethal VR Nov 8, 2016 $14.9967% (87%/66%)0 .. 20,0000%00:00 (00:00)
99 Syrian Warfare Feb 21, 2017 $14.9967% (87%)50,000 .. 100,0000%00:00 (00:00)
100 The Haunted: Hells Reach Oct 24, 2011 $8.9967% (87%/51%)50,000 .. 100,0000%00:00 (00:00)
101 Shadow Blade: Reload Aug 10, 2015 $5.2467% (87%/70%)20,000 .. 50,0000.88%00:02 (00:00)
102 Avoid - Sensory Overload Apr 8, 2014 $4.9967% (87%)20,000 .. 50,0000%00:00 (00:00)
103 The Tiny Tale 2 Jan 30, 2015 $6.99N/A (N/A)0 .. 20,0000%00:00 (00:00)
104 Spider: Rite of the Shrouded Moon Aug 6, 2015 $9.99N/A (N/A)20,000 .. 50,0000%00:00 (00:00)
105 Spooky Cats Jun 4, 2015 $2.9967% (87%)20,000 .. 50,0000%00:00 (00:00)
106 Spectromancer Feb 11, 2009 $9.9967% (87%)20,000 .. 50,0000%00:00 (00:00)
107 Blacksea Odyssey Jun 1, 2016 $9.9967% (87%/74%)20,000 .. 50,0002.56%01:04 (00:21)
108 Graviteam Tactics: Mius-Front Mar 4, 2016 $34.9967% (87%)0 .. 20,0000%00:00 (00:00)
109 Rush for Berlin Gold Oct 29, 2009 $4.9967% (87%/76%)20,000 .. 50,0000%00:00 (00:00)
110 Command: Northern Inferno Oct 22, 2015 $19.99N/A (N/A)0 .. 20,0000%00:00 (00:00)
111 Ballistic Tanks Sep 20, 2016 $4.9964% (86%)0 .. 20,0005.26%00:04 (00:01)
112 Steel Rain Dec 3, 2015 $9.99N/A (N/A)0 .. 20,0002.33%00:01 (00:00)
113 Bullet Sorrow VR Apr 17, 2017 $19.9964% (86%)0 .. 20,0000%00:00 (00:00)
114 Executive Assault Jul 17, 2015 $12.9964% (86%)20,000 .. 50,0000%00:00 (00:00)
115 Supreme Commander Sep 28, 2011 $12.9964% (86%/86%)500,000 .. 1,000,0000.26%01:45 (01:09)
116 Slash or Die Jun 3, 2016 $2.9964% (86%)20,000 .. 50,0000%00:00 (00:00)
117 Arcane Sorcery Sep 15, 2015 $4.99N/A (N/A)0 .. 20,0000%00:00 (00:00)
118 N2O: Nitrous Oxide Jun 29, 2015 $4.99N/A (N/A)0 .. 20,0000%00:00 (00:00)
119 The Way May 20, 2016 $2.9964% (86%/67%)50,000 .. 100,0001.97%00:40 (00:18)
120 NOBUNAGA'S AMBITION: Souzou (Traditional Chinese version) Aug 2014 $24.9964% (86%)20,000 .. 50,0000%00:00 (00:00)
121 Super Chibi Knight Jun 24, 2015 $4.9964% (86%)20,000 .. 50,0000%00:00 (00:00)
122 Civilization IV: Warlords Apr 6, 2007 $4.9964% (86%/84%)1,000,000 .. 2,000,0000%00:00 (00:00)
123 Meltdown Jun 5, 2014 $6.9964% (86%)50,000 .. 100,0000.93%00:03 (00:01)
124 Star Ruler Sep 20, 2010 $9.9964% (86%)100,000 .. 200,0000%00:00 (00:00)
125 Rooks Keep Dec 5, 2014 $7.99N/A (N/A)20,000 .. 50,0000%00:00 (00:00)
126 Age of Wonders Shadow Magic Oct 2010 $9.9962% (85%/82%)100,000 .. 200,0000%00:00 (00:00)
127 VelocityUltra Dec 12, 2013 $9.9962% (85%)50,000 .. 100,0000.62%00:02 (00:00)
128 Western 1849 Reloaded Feb 10, 2017 $4.99N/A (N/A)0 .. 20,0001.72%00:06 (00:02)
129 ENSLAVED: Odyssey to the West Premium Edition Oct 24, 2013 $19.9962% (85%/70%)200,000 .. 500,0000.35%06:19 (04:12)
130 Gurgamoth Feb 16, 2016 $4.99N/A (N/A)50,000 .. 100,0000.63%02:31 (00:50)
131 Last Knight: Rogue Rider Edition Oct 3, 2014 $1.5962% (85%)20,000 .. 50,0000%00:00 (00:00)
132 Delta Force 2 Jun 18, 2009 $4.9962% (85%)20,000 .. 50,0002.56%00:06 (00:02)
133 Magnifico Dec 2, 2014 $4.99N/A (N/A)50,000 .. 100,0000%00:00 (00:00)
134 ShootMania Storm Apr 10, 2013 $19.9962% (85%/76%)50,000 .. 100,0001.45%00:43 (00:14)
135 Dustoff Heli Rescue Mar 6, 2015 $3.9962% (85%)20,000 .. 50,0000%00:00 (00:00)
136 Ghost Master Dec 21, 2006 $4.9962% (85%/81%)100,000 .. 200,0000.46%00:01 (00:00)
137 Interloper May 21, 2015 Free62% (85%/77%)50,000 .. 100,0000%00:00 (00:00)
138 Neon Shadow Aug 25, 2016 $4.99N/A (N/A)0 .. 20,0000%00:00 (00:00)
139 Foresight Nov 28, 2014 $4.99N/A (N/A)0 .. 20,0000%00:00 (00:00)
140 Sudden Strike 2 Gold Aug 30, 2002 $5.9959% (84%)0 .. 20,0000%00:00 (00:00)
141 Act of War: Direct Action Mar 12, 2008 $1.1959% (84%/82%)20,000 .. 50,0000%00:00 (00:00)
142 Super Furball Apr 21, 2015 $3.99N/A (N/A)0 .. 20,0000%00:00 (00:00)
143 Legend (1994) Nov 10, 2015 $4.99N/A (N/A)0 .. 20,0002.94%09:53 (03:17)
144 CRYPTARK Jun 20, 2017 $14.9959% (84%/80%)50,000 .. 100,0000%00:00 (00:00)
145 Fat Chicken Dec 4, 2014 $9.99N/A (N/A)0 .. 20,0000%00:00 (00:00)
146 The Men of Yoshiwara: Kikuya Oct 14, 2015 $29.9959% (84%)0 .. 20,0000%00:00 (00:00)
147 Battle Group 2 Jun 13, 2014 $7.9959% (84%)50,000 .. 100,0000%00:00 (00:00)
148 Demons with Shotguns Apr 25, 2016 $9.99N/A (N/A)0 .. 20,0000%00:00 (00:00)
149 Eador: Genesis Oct 14, 2013 $5.9956% (83%)50,000 .. 100,0000%00:00 (00:00)
150 Crush Your Enemies Jul 13, 2016 $9.9956% (83%/63%)20,000 .. 50,0006%32:27 (32:01)
151 GIBZ Apr 7, 2017 $3.1956% (83%)0 .. 20,0000%00:00 (00:00)
152 NOBUNAGA'S AMBITION: Sphere of Influence Sep 1, 2015 $59.9956% (83%/70%)20,000 .. 50,0000%00:00 (00:00)
153 Advanced Tactics Gold Aug 15, 2014 $29.9956% (83%)0 .. 20,0000%00:00 (00:00)
154 Weapon of Choice Sep 23, 2015 $4.99N/A (N/A)0 .. 20,0000%00:00 (00:00)
155 Orbital Gear Aug 7, 2014 $9.9956% (83%/59%)200,000 .. 500,0000%00:00 (00:00)
156 TY the Tasmanian Tiger 4 Sep 17, 2015 $5.9956% (83%)20,000 .. 50,0000%00:00 (00:00)
157 Ace of Protectors Jun 27, 2016 $1.99N/A (N/A)20,000 .. 50,0000%00:00 (00:00)
158 Blade Arcus from Shining: Battle Arena Jul 28, 2016 $29.9954% (82%)0 .. 20,0000%00:00 (00:00)
159 Yomi May 8, 2015 $14.9954% (82%)0 .. 20,0000%00:00 (00:00)
160 Galaxy Admirals Jan 17, 2017 $1.9954% (82%)50,000 .. 100,0000.51%00:20 (00:06)
161 Rack N Ruin Sep 1, 2015 $9.9954% (82%)0 .. 20,0000%00:00 (00:00)
162 Shadow Ops: Red Mercury Jul 2, 2014 $6.9954% (82%/61%)20,000 .. 50,0000%00:00 (00:00)
163 PixelJunk Shooter Ultimate Oct 21, 2015 $9.9954% (82%)0 .. 20,0000%00:00 (00:00)
164 htoL#NiQ: The Firefly Diary / htoL#NiQ-ホタルノニッキ- May 18, 2016 $9.9954% (82%)20,000 .. 50,0000%00:00 (00:00)
165 Bulletstorm: Full Clip Edition Apr 7, 2017 $39.9954% (82%/76%)50,000 .. 100,0002.5%01:10 (01:10)
166 Square Brawl Oct 22, 2015 $4.9954% (82%)0 .. 20,0004%04:08 (01:22)
167 Supreme Ruler 2020 Gold Jul 9, 2009 $9.9952% (81%/65%)50,000 .. 100,0000%00:00 (00:00)
168 Toadled Sep 22, 2016 $0.9952% (81%)50,000 .. 100,0000%00:00 (00:00)
169 ROD: Revolt Of Defense Aug 12, 2016 $0.9952% (81%)20,000 .. 50,0000%00:00 (00:00)
170 Fantasy Wars Aug 6, 2010 $4.9952% (81%/67%)50,000 .. 100,0000%00:00 (00:00)
171 Gun Metal Jan 16, 2014 $1.0152% (81%)200,000 .. 500,0000%00:00 (00:00)
172 Tiki Man Jun 5, 2015 $0.9952% (81%)20,000 .. 50,0000.81%00:01 (00:00)
173 Conflict Desert Storm May 28, 2012 $6.9952% (81%/56%)20,000 .. 50,0000%00:00 (00:00)
174 In Verbis Virtus Apr 3, 2015 $19.9952% (81%)50,000 .. 100,0002.04%00:23 (00:15)
175 Concealed Intent Aug 2, 2016 $14.99N/A (N/A)0 .. 20,0000%00:00 (00:00)
176 7,62 High Calibre Apr 30, 2014 $4.9949% (80%)20,000 .. 50,0000%00:00 (00:00)
177 Enemy Mind Jun 6, 2014 $9.9949% (80%)200,000 .. 500,0000%00:00 (00:00)
178 Monday Night Combat Jan 24, 2011 $4.9949% (80%/82%)200,000 .. 500,0000%00:00 (00:00)
179 Hail to the King: Deathbat Oct 30, 2014 $5.9949% (80%)0 .. 20,0000%00:00 (00:00)
180 Envoy Mar 17, 2016 $4.99N/A (N/A)50,000 .. 100,0000%00:00 (00:00)
181 rymdkapsel Jan 30, 2014 $7.9949% (80%/77%)0 .. 20,0000%00:00 (00:00)
182 Zeno Clash 2 Apr 30, 2013 $14.9949% (80%)200,000 .. 500,0000.39%00:06 (00:04)
183 Disciples Sacred Lands Gold Oct 7, 2014 $7.9949% (80%)20,000 .. 50,0000%00:00 (00:00)
184 Fleet Command Oct 26, 2006 $3.9949% (80%)50,000 .. 100,0000%00:00 (00:00)
185 Trigger Runners Mar 3, 2016 $1.99N/A (N/A)0 .. 20,0000%00:00 (00:00)
186 Star Wolves 3: Civil War Mar 2, 2010 $4.9949% (80%)100,000 .. 200,0000.43%00:22 (00:07)
187 Child Of Ault Jan 24, 2017 $9.99N/A (N/A)0 .. 20,0000%00:00 (00:00)
188 Graviteam Tactics: Operation Star Feb 11, 2014 $29.9949% (80%)20,000 .. 50,0000%00:00 (00:00)
189 Bloodsports.TV Mar 30, 2015 $9.9949% (80%/69%)100,000 .. 200,0001.31%01:39 (00:44)
190 Legends of Callasia Jun 10, 2016 Free49% (80%)50,000 .. 100,0000%00:00 (00:00)
191 Perimeter Apr 3, 2014 $3.9949% (80%/77%)20,000 .. 50,0000%00:00 (00:00)
192 Junk Jack Nov 30, 2016 $14.9949% (80%)0 .. 20,0000%00:00 (00:00)
193 Locoland May 28, 2015 $4.9949% (80%)0 .. 20,0006.25%01:25 (00:28)
194 Run Rabbit Run Mar 31, 2016 $3.99N/A (N/A)0 .. 20,0000%00:00 (00:00)
195 Defense Zone Jul 14, 2014 $2.99N/A (N/A)0 .. 20,0000%00:00 (00:00)
196 Conquest of Elysium 3 Oct 24, 2012 $9.9949% (80%)20,000 .. 50,0000%00:00 (00:00)
197 She Wants Me Dead May 13, 2016 $7.99N/A (N/A)0 .. 20,0000%00:00 (00:00)
198 Demolition Inc. Sep 19, 2011 $5.9947% (79%)50,000 .. 100,0000%00:00 (00:00)
199 Making History: The Calm & the Storm Mar 13, 2007 $4.9947% (79%/70%)50,000 .. 100,0000%00:00 (00:00)
200 Gatling Gears Aug 30, 2011 $9.9947% (79%)20,000 .. 50,0003.03%00:14 (00:04)
201 Nuclear Dawn Sep 26, 2011 $9.9947% (79%/71%)200,000 .. 500,0000.43%00:19 (00:12)
202 Age of Gladiators Feb 25, 2016 $9.9947% (79%)20,000 .. 50,0000%00:00 (00:00)
203 TRON RUN/r Feb 16, 2016 $19.9947% (79%)0 .. 20,0000%00:00 (00:00)
204 Caster Mar 19, 2009 $1.9947% (79%)200,000 .. 500,0000%00:00 (00:00)
205 Defense Zone 3 Ultra HD Dec 14, 2016 $2.9947% (79%)20,000 .. 50,0000%00:00 (00:00)
206 Bet On Soldier Dec 5, 2014 $7.9947% (79%)20,000 .. 50,0001.01%00:04 (00:01)
207 Pharaonic Apr 28, 2016 $14.9947% (79%)0 .. 20,0000%00:00 (00:00)
208 Anomaly 2 May 15, 2013 $14.9947% (79%/77%)200,000 .. 500,0000.75%01:27 (01:36)
209 Advent Rising Sep 14, 2006 $9.9947% (79%/70%)50,000 .. 100,0000%00:00 (00:00)
210 Fate of the World Feb 28, 2011 $9.9947% (79%/70%)50,000 .. 100,0000%00:00 (00:00)
211 Vietnam ‘65 Mar 5, 2015 $9.9947% (79%/81%)20,000 .. 50,0000%00:00 (00:00)
212 Interplanetary May 12, 2015 N/A47% (79%)100,000 .. 200,0001.29%02:12 (03:03)
213 Ironcast Mar 26, 2015 $14.9947% (79%/75%)20,000 .. 50,0000%00:00 (00:00)
214 Protoshift Jan 15, 2016 $0.99N/A (N/A)0 .. 20,0000%00:00 (00:00)
215 Umihara Kawase Shun: Steam Edition Nov 24, 2015 $11.99N/A (N/A)0 .. 20,0000%00:00 (00:00)
216 The Legend of Dark Witch Dec 1, 2015 $4.9947% (79%)20,000 .. 50,0000%00:00 (00:00)
217 David. Feb 16, 2015 $1.9947% (79%)50,000 .. 100,0000%00:00 (00:00)
218 Fortified Feb 3, 2016 $14.9947% (79%)500,000 .. 1,000,0000.54%03:34 (01:51)
219 TASTEE: Lethal Tactics May 10, 2016 $14.9947% (79%)20,000 .. 50,0000%00:00 (00:00)
220 Velocity 2X Aug 19, 2015 $19.99N/A (N/A)50,000 .. 100,0000%00:00 (00:00)
221 Age of Wonders Oct 2010 $5.9945% (78%)100,000 .. 200,0000%00:00 (00:00)
222 PAC-MAN and the Ghostly Adventures Oct 29, 2013 $19.9945% (78%)0 .. 20,0000%00:00 (00:00)
223 Deadly 30 Jan 8, 2014 $4.9945% (78%)100,000 .. 200,0000.36%04:33 (01:31)
224 Strike Suit Zero: Director's Cut Apr 8, 2014 $19.9945% (78%)20,000 .. 50,0000%00:00 (00:00)
225 Dead Rising 2: Off the Record Oct 11, 2011 $19.9945% (78%/66%)200,000 .. 500,0000.33%00:16 (00:10)
226 Cultures - 8th Wonder of the World Mar 26, 2015 $4.9945% (78%)50,000 .. 100,0000%00:00 (00:00)
227 Mold on Pizza Sep 25, 2015 $5.9945% (78%)0 .. 20,0003.23%00:01 (00:00)
228 After The End: The Harvest Jun 2, 2017 $4.9945% (78%)20,000 .. 50,0000%00:00 (00:00)
229 Klang Sep 22, 2016 $14.9945% (78%/71%)0 .. 20,0000%00:00 (00:00)
230 Zombie Party Jun 10, 2016 $9.9945% (78%)100,000 .. 200,0002.38%00:19 (00:06)
231 Zombie Killtime Aug 4, 2015 $1.99N/A (N/A)0 .. 20,0000%00:00 (00:00)
232 Aeon Command Jul 3, 2014 $2.9945% (78%)20,000 .. 50,0000%00:00 (00:00)
233 Tank Destroyer Mar 9, 2017 $2.9945% (78%)20,000 .. 50,0000%00:00 (00:00)
234 Heroes of Might & Magic V: Hammers of Fate Oct 10, 2008 $9.9943% (77%/66%)200,000 .. 500,0000.56%00:34 (00:11)
235 Sky Gamblers: Storm Raiders Jan 7, 2015 $9.9943% (77%)0 .. 20,0000%00:00 (00:00)
236 King of Dragon Pass Jul 28, 2015 $11.9943% (77%)20,000 .. 50,0000%00:00 (00:00)
237 Ninjahtic Jul 6, 2015 $1.9943% (77%)0 .. 20,0000%00:00 (00:00)
238 McDROID Sep 5, 2014 $9.9943% (77%)0 .. 20,0000%00:00 (00:00)
239 Starchaser: Priestess of the Night Sky Jul 24, 2015 $9.99N/A (N/A)0 .. 20,0000%00:00 (00:00)
240 The Political Machine 2016 Feb 4, 2016 $9.9943% (77%)50,000 .. 100,0001.42%00:17 (00:09)
241 Warlords Battlecry III Jan 22, 2016 $9.9943% (77%/73%)20,000 .. 50,0000%00:00 (00:00)
242 A Blind Legend Apr 7, 2016 $6.9943% (77%)0 .. 20,0000%00:00 (00:00)
243 Blue Effect VR Feb 8, 2017 $14.9943% (77%)0 .. 20,0000%00:00 (00:00)
244 Auralux: Constellations Jun 1, 2016 $9.99N/A (N/A)0 .. 20,0000%00:00 (00:00)
245 Anomaly Warzone Earth Mobile Campaign Nov 6, 2013 $4.9943% (77%)100,000 .. 200,0001.09%01:19 (01:15)
246 Warhammer 40,000: Armageddon Nov 26, 2014 $39.9943% (77%/68%)20,000 .. 50,0004.17%11:09 (03:43)
247 Dominions 3: The Awakening Sep 10, 2013 $19.9943% (77%/82%)0 .. 20,0000%00:00 (00:00)
248 Making History II: The War of the World Aug 27, 2010 $14.9943% (77%/38%)20,000 .. 50,0000%00:00 (00:00)
249 Curse of the Crescent Isle DX Aug 21, 2015 $0.9943% (77%)0 .. 20,0000%00:00 (00:00)
250 Cashtronauts Aug 31, 2016 $2.99N/A (N/A)0 .. 20,0000%00:00 (00:00)
251 Dangerous Waters Feb 7, 2006 $14.9941% (76%/82%)50,000 .. 100,0000%00:00 (00:00)
252 Painkiller Hell & Damnation Oct 31, 2012 $19.9941% (76%/64%)500,000 .. 1,000,0000.18%00:01 (00:00)
253 Rocket Knight May 11, 2010 $14.9941% (76%/63%)0 .. 20,0000%00:00 (00:00)
254 A.R.E.S. Extinction Agenda EX Oct 3, 2014 $9.9941% (76%)0 .. 20,0002.5%00:06 (00:02)
255 Mysterium: A Psychic Clue Game Jan 12, 2017 $6.9941% (76%)50,000 .. 100,0001.48%05:36 (03:52)
256 Battlezone Gold Edition May 11, 2017 $34.9941% (76%)0 .. 20,0000%00:00 (00:00)
257 Vector Strain Dec 9, 2015 $4.99N/A (N/A)20,000 .. 50,0001.79%04:37 (01:32)
258 Olympia Rising Jul 23, 2015 $4.9941% (76%)0 .. 20,0000%00:00 (00:00)
259 Deadlings: Rotten Edition Nov 11, 2014 $3.9941% (76%)50,000 .. 100,0000%00:00 (00:00)
260 Star Realms Mar 8, 2016 Free41% (76%)100,000 .. 200,0000%00:00 (00:00)
261 BloodRayne Sep 14, 2006 $9.9941% (76%/65%)50,000 .. 100,0000%00:00 (00:00)
262 Extravaganza Rising Jul 21, 2016 N/AN/A (N/A)20,000 .. 50,0000%00:00 (00:00)
263 Jim Power -The Lost Dimension Sep 30, 2015 $4.99N/A (N/A)0 .. 20,0000%00:00 (00:00)
264 Corgi Warlock Dec 3, 2015 $1.9941% (76%)20,000 .. 50,0000%00:00 (00:00)
265 Rocketbirds 2 Evolution Jan 26, 2017 $9.9939% (75%)20,000 .. 50,0000%00:00 (00:00)
266 Livelock Aug 30, 2016 $9.9939% (75%/73%)20,000 .. 50,0000%00:00 (00:00)
267 BossConstructor Oct 24, 2016 $14.9939% (75%)0 .. 20,0009.09%00:45 (00:15)
268 Platformines Mar 28, 2014 $9.9939% (75%/67%)100,000 .. 200,0000%00:00 (00:00)
269 Onechanbara Z2: Chaos Jun 2, 2016 $39.9939% (75%)0 .. 20,0006.25%01:06 (00:22)
270 Star Hammer: The Vanguard Prophecy Jun 4, 2015 $19.9939% (75%/69%)0 .. 20,00010%00:35 (00:11)
271 Bubsy Two-Fur Dec 17, 2015 $4.9939% (75%)20,000 .. 50,0000%00:00 (00:00)
272 Perimeter: Emperor's Testament May 22, 2014 $3.99N/A (N/A/72%)20,000 .. 50,0001.72%00:02 (00:00)
273 Heaven Forest NIGHTS Mar 14, 2017 $0.99N/A (N/A)100,000 .. 200,0001.03%03:52 (04:04)
274 Civil War II Jul 3, 2014 $39.9939% (75%)0 .. 20,0000%00:00 (00:00)
275 WARSHIFT Oct 12, 2016 $6.4939% (75%)20,000 .. 50,0000%00:00 (00:00)
276 Fist Puncher Jun 21, 2013 $9.9939% (75%/73%)20,000 .. 50,0001.19%05:10 (01:43)
277 CivCity: Rome Apr 6, 2007 $9.9939% (75%/67%)50,000 .. 100,0000%00:00 (00:00)
278 Victory At Sea Aug 8, 2014 $24.9939% (75%)20,000 .. 50,0000%00:00 (00:00)
279 Chaser Jul 16, 2010 $4.9939% (75%/66%)50,000 .. 100,0000.74%00:09 (00:03)
280 Z Jul 4, 2014 $6.9939% (75%)100,000 .. 200,0000.78%01:11 (00:46)
281 Hunting Unlimited 2008 Jan 29, 2008 $9.99N/A (N/A)20,000 .. 50,0000%00:00 (00:00)
282 Battle Mages: Sign of Darkness Jul 24, 2014 $4.9939% (75%)0 .. 20,0005%04:42 (01:34)
283 Smithy Jun 3, 2016 $3.99N/A (N/A)50,000 .. 100,0000.45%04:03 (01:21)
284 Monster Monpiece Mar 14, 2017 $19.9939% (75%)0 .. 20,0000%00:00 (00:00)
285 Distant Worlds: Universe May 23, 2014 $59.9937% (74%/81%)50,000 .. 100,0002.63%12:17 (04:05)
286 Ubersoldier II Mar 25, 2014 $9.9937% (74%/62%)20,000 .. 50,0000%00:00 (00:00)
287 Spirits of Xanadu Mar 26, 2015 $4.9937% (74%)20,000 .. 50,0001.54%00:51 (00:17)
288 TableTop Soccer Apr 22, 2016 $0.9937% (74%)0 .. 20,0000%00:00 (00:00)
289 Master Reboot Oct 29, 2013 $14.9937% (74%/59%)50,000 .. 100,0000%00:00 (00:00)
290 Commander: The Great War Jul 25, 2014 $29.9937% (74%)0 .. 20,0000%00:00 (00:00)
291 Albino Lullaby: Episode 1 Sep 14, 2015 $9.9937% (74%)20,000 .. 50,0000%00:00 (00:00)
292 Riddled Corpses Jun 2, 2015 $7.9937% (74%)20,000 .. 50,0000%00:00 (00:00)
293 Viktor Jun 13, 2014 $7.9937% (74%)20,000 .. 50,0000%00:00 (00:00)
294 Smell Of Death Jul 4, 2016 $9.99N/A (N/A)0 .. 20,0000%00:00 (00:00)
295 FIVE: Champions of Canaan Sep 27, 2016 $3.99N/A (N/A)0 .. 20,0004%07:19 (02:26)
296 Supreme Ruler Ultimate Oct 17, 2014 $19.9936% (73%)20,000 .. 50,00020.83%00:17 (00:19)
297 Death by Game Show Jan 22, 2016 $9.99N/A (N/A)20,000 .. 50,0000%00:00 (00:00)
298 Sid Meier’s Ace Patrol Aug 27, 2013 $4.9936% (73%)500,000 .. 1,000,0000.2%00:01 (00:00)
299 FEIST Jul 23, 2015 $9.9936% (73%/65%)20,000 .. 50,0000%00:00 (00:00)
300 Hot Tin Roof: The Cat That Wore A Fedora Feb 20, 2015 $14.9936% (73%/66%)100,000 .. 200,0000%00:00 (00:00)
301 Rex Rocket Aug 5, 2014 $4.9936% (73%)20,000 .. 50,0000%00:00 (00:00)
302 AirMech Command Mar 8, 2017 $19.9936% (73%)0 .. 20,0000%00:00 (00:00)
303 Gold Rush! Anniversary Nov 7, 2014 $5.99N/A (N/A)100,000 .. 200,0000%00:00 (00:00)
304 Battle Time Sep 29, 2016 $0.9936% (73%)50,000 .. 100,0001.4%03:05 (02:03)
305 The Aquatic Adventure of the Last Human Jan 19, 2016 $9.9936% (73%/76%)0 .. 20,0000%00:00 (00:00)
306 Vampire of the Sands Jul 17, 2015 $4.9936% (73%)20,000 .. 50,0000%00:00 (00:00)
307 Making History: The Great War Jan 29, 2015 $29.9936% (73%)20,000 .. 50,0000%00:00 (00:00)
308 Battle Fleet 2 Nov 20, 2014 $14.9936% (73%)20,000 .. 50,0000%00:00 (00:00)
309 Alarameth TD Jun 23, 2015 $4.99N/A (N/A)0 .. 20,0000%00:00 (00:00)
310 Cuban Missile Crisis Mar 25, 2015 $4.9936% (73%)20,000 .. 50,0001.43%00:03 (00:01)
311 Divinity: Dragon Commander Aug 6, 2013 $39.9936% (73%)200,000 .. 500,0000%00:00 (00:00)
312 Pick a Hero Jun 9, 2016 $0.99N/A (N/A)0 .. 20,0000%00:00 (00:00)
313 Pike and Shot : Campaigns Aug 13, 2015 $39.9934% (72%)0 .. 20,0000%00:00 (00:00)
314 Phoning Home Feb 7, 2017 $19.9934% (72%/61%)20,000 .. 50,0000%00:00 (00:00)
315 Pongo May 11, 2015 $0.9934% (72%)50,000 .. 100,0000%00:00 (00:00)
316 Rise & Shine Jan 13, 2017 $14.9934% (72%)20,000 .. 50,0000%00:00 (00:00)
317 Lost Planet: Extreme Condition Jun 26, 2007 $14.9934% (72%/66%)200,000 .. 500,0000%00:00 (00:00)
318 Airship Dragoon Aug 26, 2014 $19.99N/A (N/A)0 .. 20,0000%00:00 (00:00)
319 Civil War: Battle of Petersburg Feb 8, 2017 $0.6234% (72%)0 .. 20,0000%00:00 (00:00)
320 LEGO Indiana Jones 2: The Adventure Continues Feb 18, 2010 $19.9934% (72%/66%)50,000 .. 100,0001.39%01:20 (00:26)
321 Wildlife Park 2 - Crazy Zoo Jul 17, 2014 $3.99N/A (N/A)20,000 .. 50,0004.17%04:13 (01:24)
322 Retrovirus Jan 31, 2013 $9.9934% (72%/70%)20,000 .. 50,0000%00:00 (00:00)
323 Auro: A Monster-Bumping Adventure Apr 13, 2016 $6.99N/A (N/A)0 .. 20,0000%00:00 (00:00)
324 Cast of the Seven Godsends - Redux Jul 20, 2015 $9.9934% (72%)20,000 .. 50,0000%00:00 (00:00)
325 Codex of Victory Mar 16, 2017 $14.9934% (72%)0 .. 20,0000%00:00 (00:00)
326 Fatal Fight Jun 10, 2016 $2.99N/A (N/A)0 .. 20,0000%00:00 (00:00)
327 Heroes of Arca Feb 16, 2017 Free34% (72%)0 .. 20,0006.67%00:57 (00:19)
328 VRZ: Torment May 18, 2017 $9.9934% (72%)0 .. 20,0000%00:00 (00:00)
329 King Arthur - The Role-playing Wargame Nov 24, 2009 $9.9934% (72%)200,000 .. 500,0000%00:00 (00:00)
330 Disney Planes Oct 6, 2014 $19.99N/A (N/A)0 .. 20,0000%00:00 (00:00)
331 Wyv and Keep: The Temple of the Lost Idol Aug 8, 2014 $14.99N/A (N/A)20,000 .. 50,0000%00:00 (00:00)
332 Elliot Quest Nov 10, 2014 $9.9934% (72%)20,000 .. 50,0000%00:00 (00:00)
333 Deadnaut Dec 8, 2014 $9.9934% (72%)0 .. 20,0000%00:00 (00:00)
334 Elven Legacy Apr 7, 2009 $4.9934% (72%/71%)50,000 .. 100,0000%00:00 (00:00)
335 Sengoku Jidai: Shadow of the Shogun May 19, 2016 $29.9932% (71%/85%)0 .. 20,0000%00:00 (00:00)
336 Warp Mar 21, 2012 $9.9932% (71%)20,000 .. 50,0000%00:00 (00:00)
337 The Last Federation Apr 18, 2014 $3.9932% (71%/72%)50,000 .. 100,0000.79%00:06 (00:02)
338 Tom Clancy's EndWar Feb 25, 2009 $9.9932% (71%/68%)50,000 .. 100,0000%00:00 (00:00)
339 Zoo Empire Sep 3, 2015 $6.99N/A (N/A/59%)0 .. 20,0000%00:00 (00:00)
340 There Came an Echo Feb 24, 2015 $14.9932% (71%/58%)20,000 .. 50,0000%00:00 (00:00)
341 Cross of the Dutchman Sep 10, 2015 $8.9932% (71%/59%)20,000 .. 50,0000%00:00 (00:00)
342 A.R.E.S.: Extinction Agenda Jan 19, 2011 $4.9932% (71%/68%)100,000 .. 200,0000%00:00 (00:00)
343 REDCON Apr 22, 2016 $5.9932% (71%)0 .. 20,0000%00:00 (00:00)
344 Banzai Escape Feb 29, 2016 $5.9932% (71%)20,000 .. 50,0000%00:00 (00:00)
345 rooMaze Mar 3, 2017 $1.9932% (71%)100,000 .. 200,0000%00:00 (00:00)
346 Revolution Under Siege Gold Jul 2, 2015 $24.9931% (70%)0 .. 20,0000%00:00 (00:00)
347 Strategy & Tactics: Wargame Collection Apr 22, 2016 $9.9931% (70%)20,000 .. 50,0002.11%01:04 (00:42)
348 Brigade E5: New Jagged Union Apr 30, 2014 $3.99N/A (N/A/41%)0 .. 20,0002.44%00:01 (00:00)
349 BitMaster Oct 12, 2016 $2.9931% (70%)200,000 .. 500,0000%00:00 (00:00)
350 8-Bit Commando Jun 2, 2014 $2.9929% (69%)50,000 .. 100,0000%00:00 (00:00)
351 Collapse Apr 11, 2014 $19.9929% (69%)20,000 .. 50,0001.23%00:01 (00:00)
352 Lux Delux May 1, 2015 $4.9929% (69%)20,000 .. 50,0000%00:00 (00:00)
353 The Superfluous May 19, 2017 $4.99N/A (N/A)0 .. 20,0000%00:00 (00:00)
354 Panzer Tactics HD May 22, 2014 $9.9929% (69%/69%)20,000 .. 50,0000%00:00 (00:00)
355 Sol 0: Mars Colonization Jan 15, 2016 $3.9929% (69%)20,000 .. 50,0000%00:00 (00:00)
356 Spud's Quest Jul 31, 2014 $7.99N/A (N/A)0 .. 20,0000%00:00 (00:00)
357 The Nightmare Cooperative Jul 16, 2014 $4.99N/A (N/A)50,000 .. 100,0000%00:00 (00:00)
358 Jagged Alliance 2 - Wildfire Nov 16, 2012 $6.9929% (69%)200,000 .. 500,0001.1%05:40 (06:30)
359 Space Colony: Steam Edition Apr 30, 2015 $14.9929% (69%/74%)20,000 .. 50,0001.45%00:01 (00:00)
360 Incandescent Jun 30, 2015 $0.9929% (69%)20,000 .. 50,0000%00:00 (00:00)
361 Little King's Story Aug 5, 2016 $19.9929% (69%/62%)0 .. 20,0000%00:00 (00:00)
362 Othello Mar 19, 2015 $2.4927% (68%)0 .. 20,0000%00:00 (00:00)
363 FIVE: Guardians of David Nov 24, 2015 $9.9927% (68%/66%)20,000 .. 50,0000%00:00 (00:00)
364 Bedlam Oct 13, 2015 $12.9927% (68%/54%)100,000 .. 200,0000%00:00 (00:00)
365 Warrior Kings Apr 24, 2014 $9.99N/A (N/A/73%)0 .. 20,0000%00:00 (00:00)
366 ManaCollect Apr 17, 2015 $1.74N/A (N/A)0 .. 20,0000%00:00 (00:00)
367 Scourge of War: Waterloo Nov 19, 2015 $49.9927% (68%)0 .. 20,0000%00:00 (00:00)
368 Pigmentone Jul 8, 2016 $1.99N/A (N/A)0 .. 20,0000%00:00 (00:00)
369 Royal Defense Nov 10, 2014 $4.9927% (68%)50,000 .. 100,0000%00:00 (00:00)
370 The Hive Aug 25, 2016 $9.9927% (68%)20,000 .. 50,0000%00:00 (00:00)
371 YAIBA: NINJA GAIDEN Z Mar 21, 2014 $29.9927% (68%/49%)20,000 .. 50,0000%00:00 (00:00)
372 The Living Dungeon Nov 2, 2015 $9.99N/A (N/A)0 .. 20,0000%00:00 (00:00)
373 Guns n Zombies Oct 30, 2014 $7.9927% (68%)100,000 .. 200,0001.03%02:02 (01:20)
374 Infinity Runner Jul 14, 2014 $6.9926% (67%/56%)0 .. 20,0000%00:00 (00:00)
375 Warhammer 40,000: Armageddon - Da Orks Aug 18, 2016 $19.99N/A (N/A)0 .. 20,0000%00:00 (00:00)
376 Chainsaw Warrior Oct 7, 2013 $4.9926% (67%)100,000 .. 200,0000%00:00 (00:00)
377 March of the Eagles Feb 18, 2013 $19.9926% (67%/71%)50,000 .. 100,0000%00:00 (00:00)
378 Toy Odyssey: The Lost and Found Sep 20, 2016 $14.9926% (67%/66%)20,000 .. 50,0000%00:00 (00:00)
379 Space Food Truck Mar 25, 2016 $9.9926% (67%)20,000 .. 50,0000%00:00 (00:00)
380 Survivor Squad: Gauntlets Nov 16, 2015 $4.9926% (67%)20,000 .. 50,0002.08%06:09 (02:03)
381 Stonerid Aug 15, 2014 $4.9926% (67%)50,000 .. 100,0000%00:00 (00:00)
382 Kill The Plumber Dec 31, 2015 $4.9926% (67%)0 .. 20,0000%00:00 (00:00)
383 Toren May 11, 2015 $9.9926% (67%/57%)50,000 .. 100,0000.71%00:09 (00:03)
384 Alea Jacta Est Nov 4, 2014 $24.99N/A (N/A)0 .. 20,0003.85%00:33 (00:11)
385 Zafehouse: Diaries Sep 6, 2013 $1.9926% (67%)50,000 .. 100,0000%00:00 (00:00)
386 Zombie Camp Jul 31, 2016 $1.99N/A (N/A)0 .. 20,0000%00:00 (00:00)
387 RISK: Factions Mar 8, 2011 $9.9924% (66%/77%)50,000 .. 100,0001.43%09:23 (03:07)
388 Nomad Fleet Apr 19, 2016 $9.9924% (66%)0 .. 20,0000%00:00 (00:00)
389 Urban Pirate Jun 17, 2016 $6.99N/A (N/A)0 .. 20,0000%00:00 (00:00)
390 1775: Rebellion Sep 29, 2016 $24.99N/A (N/A)0 .. 20,0002.13%01:54 (00:38)
391 Quick Slick Deadly Sep 21, 2015 $1.99N/A (N/A)20,000 .. 50,0000%00:00 (00:00)
392 Sengoku Sep 15, 2011 $9.9924% (66%/70%)100,000 .. 200,0000%00:00 (00:00)
393 Assassin’s Creed Chronicles: India Jan 12, 2016 $9.9924% (66%)50,000 .. 100,0001.37%03:34 (01:11)
394 Scourge: Outbreak Apr 2, 2014 $7.9924% (66%)100,000 .. 200,0000%00:00 (00:00)
395 Zombie City Defense 2 Aug 19, 2016 $9.9924% (66%)0 .. 20,0000%00:00 (00:00)
396 1849 May 8, 2014 $14.9924% (66%)20,000 .. 50,0000%00:00 (00:00)
397 Fair Strike Apr 23, 2015 $3.99N/A (N/A/56%)0 .. 20,0000%00:00 (00:00)
398 Commander Cool 2 Dec 17, 2015 $2.99N/A (N/A)20,000 .. 50,0001.19%00:57 (00:19)
399 Mad Combat Marines Jul 13, 2016 $0.9924% (66%)20,000 .. 50,0001.23%02:30 (00:50)
400 Sky To Fly: Faster Than Wind Mar 25, 2016 $3.99N/A (N/A)0 .. 20,0000%00:00 (00:00)
401 Men of War: Condemned Heroes Apr 12, 2012 $7.9923% (65%/57%)100,000 .. 200,0000%00:00 (00:00)
402 The Seven Years War (1756-1763) Oct 30, 2015 $19.9923% (65%)0 .. 20,0000%00:00 (00:00)
403 Disney Pirates of the Caribbean: At Worlds End Oct 6, 2014 $19.9923% (65%)0 .. 20,0000%00:00 (00:00)
404 Theatre of War 2: Africa 1943 Jul 9, 2010 $4.9923% (65%/63%)100,000 .. 200,0000%00:00 (00:00)
405 Ground Breakers Jun 15, 2016 $4.99N/A (N/A)0 .. 20,0000%00:00 (00:00)
406 7th Legion Oct 23, 2014 $6.99N/A (N/A)0 .. 20,0000%00:00 (00:00)
407 Zombie Tycoon 2: Brainhov's Revenge Dec 9, 2013 $4.9923% (65%)50,000 .. 100,0000%00:00 (00:00)
408 Marauder Apr 4, 2014 $9.9923% (65%)20,000 .. 50,0002.5%00:05 (00:01)
409 Jagged Alliance: Crossfire Aug 24, 2012 $14.9922% (64%/63%)100,000 .. 200,0000%00:00 (00:00)
410 Warlock 2: The Exiled Apr 10, 2014 $19.9922% (64%/73%)50,000 .. 100,0001.23%02:56 (00:58)
411 Revenge of Roger Rouge Apr 22, 2016 $0.99N/A (N/A)20,000 .. 50,0000%00:00 (00:00)
412 Zoo Rampage Jul 9, 2014 $3.9922% (64%)0 .. 20,0000%00:00 (00:00)
413 Theatre of War 2: Kursk 1943 Jul 9, 2010 $4.9922% (64%)50,000 .. 100,0000%00:00 (00:00)
414 Link Apr 22, 2016 $4.99N/A (N/A)0 .. 20,0000%00:00 (00:00)
415 Kaiju-A-GoGo Apr 23, 2015 $9.9922% (64%)20,000 .. 50,0000%00:00 (00:00)
416 Devil's Dare 悪魔の挑戦 Oct 21, 2014 $12.9922% (64%)20,000 .. 50,0000%00:00 (00:00)
417 Frozen Synapse Prime Nov 14, 2014 $24.9922% (64%/83%)100,000 .. 200,0000.98%01:17 (00:50)
418 Hunters Of The Dead Sep 4, 2014 $4.9922% (64%)20,000 .. 50,0000%00:00 (00:00)
419 Malebolgia May 6, 2015 $12.9921% (63%)0 .. 20,0000%00:00 (00:00)
420 Platypus II Aug 15, 2014 $6.9921% (63%)200,000 .. 500,0000.16%00:03 (00:01)
421 The Few Jun 18, 2014 $7.9921% (63%)20,000 .. 50,0000%00:00 (00:00)
422 Beasts Battle Jun 15, 2016 $1.99N/A (N/A)0 .. 20,0000%00:00 (00:00)
423 Overruled! Sep 15, 2015 $12.99N/A (N/A)20,000 .. 50,0000%00:00 (00:00)
424 A Game of Dwarves Oct 23, 2012 $9.9921% (63%/60%)50,000 .. 100,0000.94%00:04 (00:01)
425 Pixel Boy and the Ever Expanding Dungeon May 30, 2014 $0.9921% (63%)20,000 .. 50,0000%00:00 (00:00)
426 Battle Worlds: Kronos Nov 4, 2013 $19.9921% (63%/71%)20,000 .. 50,0004%07:17 (02:25)
427 Port Royale 2 Jun 16, 2009 $4.9921% (63%/75%)50,000 .. 100,0000%00:00 (00:00)
428 Double Dragon IV Jan 30, 2017 $6.9921% (63%/50%)0 .. 20,00022.22%06:03 (04:02)
429 Will Fight for Food: Super Actual Sellout: Game of the Hour Apr 22, 2015 $5.99N/A (N/A)0 .. 20,0000%00:00 (00:00)
430 4089: Ghost Within Jan 9, 2015 $5.9920% (62%)0 .. 20,0000%00:00 (00:00)
431 Goblin Defenders: Steel‘n’ Wood Nov 23, 2015 $2.99N/A (N/A)20,000 .. 50,0000%00:00 (00:00)
432 UnSummoning: the Spectral Horde Dec 21, 2015 FreeN/A (N/A)0 .. 20,0008.33%20:30 (06:50)
433 Desert Ashes Nov 10, 2014 $4.99N/A (N/A)20,000 .. 50,0001.28%00:01 (00:00)
434 Disney Epic Mickey 2: The Power of Two Oct 6, 2014 $19.9920% (62%)0 .. 20,0000%00:00 (00:00)
435 Hyperspace Pinball Sep 30, 2015 $2.99N/A (N/A)0 .. 20,0000%00:00 (00:00)
436 Sorcerer King: Rivals Sep 22, 2016 $13.4920% (62%)20,000 .. 50,0000%00:00 (00:00)
437 To End All Wars Aug 29, 2014 $39.9920% (62%/71%)0 .. 20,0000%00:00 (00:00)
438 SPACECOM Sep 17, 2014 $9.9920% (62%/68%)100,000 .. 200,0004.03%01:46 (02:22)
439 My Super Tower 2 Jan 27, 2017 $0.49N/A (N/A)0 .. 20,0002.38%00:32 (00:10)
440 Rise: Battle Lines Nov 17, 2015 $1.99N/A (N/A)0 .. 20,0000%00:00 (00:00)
441 Spirit of War Mar 12, 2015 $9.99N/A (N/A)20,000 .. 50,0000%00:00 (00:00)
442 Spice Road Apr 24, 2014 $19.99N/A (N/A)0 .. 20,0000%00:00 (00:00)
443 War, the Game Jan 12, 2015 $6.9919% (61%/65%)20,000 .. 50,0000%00:00 (00:00)
444 Call of Duty: Black Ops - Mac Edition Sep 27, 2012 $19.9919% (61%)50,000 .. 100,0001.56%00:01 (00:00)
445 Legions of Steel Jul 16, 2015 $19.99N/A (N/A/64%)0 .. 20,0000%00:00 (00:00)
446 Purgatory Jun 22, 2016 $0.9919% (61%)200,000 .. 500,0000.22%03:31 (02:47)
447 Bombshell Jan 29, 2016 $34.9919% (61%)20,000 .. 50,0009.84%03:57 (04:14)
448 Supreme Ruler: Cold War Jul 29, 2011 $9.9919% (61%/63%)20,000 .. 50,0000%00:00 (00:00)
449 Gnumz: Masters of Defense Dec 21, 2015 $4.99N/A (N/A)20,000 .. 50,0000.4%04:27 (01:29)
450 Freight Tycoon Inc. Apr 3, 2014 $4.9919% (61%)20,000 .. 50,0000%00:00 (00:00)
451 Disciples III - Renaissance Steam Special Edition Jul 16, 2010 $14.9919% (61%/56%)100,000 .. 200,0000%00:00 (00:00)
452 Men of War: Vietnam Sep 8, 2011 $7.9919% (61%/68%)100,000 .. 200,0000.64%00:10 (00:03)
453 Assault on Arnhem Mar 11, 2016 $9.99N/A (N/A)0 .. 20,0000%00:00 (00:00)
454 Merchants of Kaidan Nov 10, 2014 $14.9917% (60%)100,000 .. 200,0000.24%02:42 (00:54)
455 BattleLore: Command Mar 31, 2015 $6.9917% (60%)0 .. 20,0000%00:00 (00:00)
456 Defend Your Crypt Jul 21, 2016 $2.99N/A (N/A)0 .. 20,0000%00:00 (00:00)
457 NOBUNAGA'S AMBITION: Sphere of Influence - Ascension / 信長の野望・創造 戦国立志伝 Mar 23, 2016 $59.9917% (60%)100,000 .. 200,0000%00:00 (00:00)
458 Hybrid Wars Sep 29, 2016 $6.9917% (60%/54%)0 .. 20,0000%00:00 (00:00)
459 Woolfe - The Red Hood Diaries Mar 17, 2015 $9.9917% (60%/55%)50,000 .. 100,0000.88%01:44 (00:34)
460 Flashback Oct 1, 2013 $9.9917% (60%)20,000 .. 50,0000%00:00 (00:00)
461 Eclipse: New Dawn for the Galaxy Sep 16, 2016 N/A17% (60%)0 .. 20,0000%00:00 (00:00)
462 Close Combat - Panthers in the Fog May 14, 2015 $39.9917% (60%)0 .. 20,0000%00:00 (00:00)
463 7 Grand Steps: What Ancients Begat Jun 7, 2013 $19.9916% (59%)100,000 .. 200,0000%00:00 (00:00)
464 Prospekt Feb 18, 2016 $9.9916% (59%)20,000 .. 50,0000%00:00 (00:00)
465 Wanderlust Adventures Aug 10, 2015 $9.9916% (59%)20,000 .. 50,0000%00:00 (00:00)
466 Heavy Fire: Afghanistan Aug 15, 2014 $2.9916% (59%)20,000 .. 50,0000%00:00 (00:00)
467 Code of Princess Apr 14, 2016 $14.9916% (59%/53%)0 .. 20,0000%00:00 (00:00)
468 E.T. Armies Mar 3, 2016 $14.9916% (59%/54%)0 .. 20,0000%00:00 (00:00)
469 Quarantine Feb 9, 2017 $9.9916% (59%)0 .. 20,0000%00:00 (00:00)
470 Patrician IV - Steam Special Edition Sep 17, 2010 $14.9916% (59%/66%)100,000 .. 200,0000%00:00 (00:00)
471 Skyshine's BEDLAM Sep 16, 2015 $19.9916% (59%/67%)20,000 .. 50,0000%00:00 (00:00)
472 Ninjahtic Mind Tricks Jul 16, 2015 $1.99N/A (N/A)0 .. 20,0000%00:00 (00:00)
473 Antisquad May 22, 2014 $5.9916% (59%)50,000 .. 100,0000%00:00 (00:00)
474 Battleplan: American Civil War Jul 4, 2014 $9.9916% (59%/66%)100,000 .. 200,0000%00:00 (00:00)
475 Armada 2526 Gold Edition Feb 28, 2013 $19.9916% (59%/66%)20,000 .. 50,0000%00:00 (00:00)
476 Gates of Horizon Dec 18, 2014 $9.9915% (58%)0 .. 20,0006.25%00:01 (00:00)
477 Ceres Oct 16, 2015 $19.9915% (58%/74%)0 .. 20,0000%00:00 (00:00)
478 Woodle Tree 2: Worlds Sep 16, 2016 $3.9915% (58%)50,000 .. 100,0000.6%00:02 (00:00)
479 Colonial Conquest Jul 28, 2015 $9.9915% (58%)0 .. 20,0000%00:00 (00:00)
480 Check vs Mate Aug 16, 2012 $19.9915% (58%/69%)0 .. 20,0000%00:00 (00:00)
481 Life in Bunker Feb 25, 2016 $15.9915% (58%)0 .. 20,0000%00:00 (00:00)
482 Cemetery Warrior 3 Feb 3, 2017 $0.9915% (58%)50,000 .. 100,0000%00:00 (00:00)
483 Sir! I'd Like To Report A Bug! Oct 19, 2015 $1.99N/A (N/A)0 .. 20,0000%00:00 (00:00)
484 Prophour23 Oct 22, 2014 $9.99N/A (N/A)0 .. 20,0000%00:00 (00:00)
485 DreamBreak Jul 21, 2016 $6.99N/A (N/A/46%)20,000 .. 50,0000%00:00 (00:00)
486 Unearthed: Trail of Ibn Battuta - Episode 1 - Gold Edition Jan 3, 2014 $4.9914% (57%)20,000 .. 50,0000%00:00 (00:00)
487 Story Of the Survivor Feb 16, 2016 $2.99N/A (N/A)50,000 .. 100,0000%00:00 (00:00)
488 Rise of Venice Sep 27, 2013 $19.9913% (56%/66%)50,000 .. 100,0001.85%00:02 (00:00)
489 Horizon Feb 6, 2014 $29.9913% (56%/58%)50,000 .. 100,0000%00:00 (00:00)
490 Delve Deeper Sep 24, 2010 $4.9913% (56%)50,000 .. 100,0000%00:00 (00:00)
491 Stay Dead Evolution Feb 4, 2015 $5.99N/A (N/A)20,000 .. 50,0001.33%04:10 (01:23)
492 Super Helmets on Fire DX Ultra Edition Plus Alpha Feb 15, 2016 $0.99N/A (N/A)0 .. 20,0000%00:00 (00:00)
493 Crazy Forest Jul 6, 2016 $4.99N/A (N/A)100,000 .. 200,0000.36%00:03 (00:01)
494 Abalone Apr 23, 2014 $6.99N/A (N/A)20,000 .. 50,0002.38%05:45 (01:55)
495 Pain Train Jan 11, 2017 $0.9913% (55%)50,000 .. 100,0000%00:00 (00:00)
496 VR Journey Dec 15, 2016 $2.99N/A (N/A)20,000 .. 50,0000.86%02:03 (00:41)
497 Adventure World Aug 2, 2016 $4.99N/A (N/A)0 .. 20,0000%00:00 (00:00)
498 reconquest Dec 16, 2016 $4.7913% (55%)0 .. 20,0000%00:00 (00:00)
499 Dawn of Andromeda May 4, 2017 $29.9912% (54%/70%)0 .. 20,0000%00:00 (00:00)
500 BC Kings Jun 16, 2009 $4.9912% (54%)20,000 .. 50,0000%00:00 (00:00)
501 Urja Jan 9, 2015 $9.9912% (54%)20,000 .. 50,0000%00:00 (00:00)
502 RESCUE 2: Everyday Heroes Jun 3, 2015 $19.9912% (54%)20,000 .. 50,0000%00:00 (00:00)
503 Crusaders: Thy Kingdom Come Oct 8, 2009 $9.99N/A (N/A)0 .. 20,0000%00:00 (00:00)
504 MDK2 HD Jul 30, 2012 $14.9911% (53%/73%)0 .. 20,0000%00:00 (00:00)
505 Sovereignty: Crown of Kings Feb 2, 2017 $24.9911% (53%)0 .. 20,0000%00:00 (00:00)
506 Castle Werewolf 3D Feb 7, 2017 $2.99N/A (N/A)50,000 .. 100,0000.25%00:19 (00:06)
507 Smugglers 5 Apr 11, 2014 $6.9911% (53%)20,000 .. 50,0000%00:00 (00:00)
508 Tic-Toc-Tower Sep 28, 2015 $2.99N/A (N/A)0 .. 20,0000%00:00 (00:00)
509 Wickland Feb 6, 2015 $0.9911% (53%)50,000 .. 100,0000%00:00 (00:00)
510 Armada 2526 Apr 8, 2011 $14.99N/A (N/A/66%)0 .. 20,0000%00:00 (00:00)
511 MinosMaze - The Minotaur's Labyrinth May 1, 2017 $4.99N/A (N/A)0 .. 20,0002.56%00:01 (00:00)
512 The Stalin Subway Sep 19, 2014 $3.9911% (52%)0 .. 20,0000%00:00 (00:00)
513 Meridian: Squad 22 Aug 11, 2016 $14.99N/A (N/A)0 .. 20,0000%00:00 (00:00)
514 Grim Seventh Jan 20, 2017 FreeN/A (N/A)0 .. 20,0000%00:00 (00:00)
515 Weather Lord: The Successor's Path May 7, 2015 $4.99N/A (N/A)0 .. 20,0000%00:00 (00:00)
516 Dusty Revenge:Co-Op Edition Feb 17, 2014 $14.9911% (52%)50,000 .. 100,0000%00:00 (00:00)
517 Royal Bounty HD Aug 10, 2015 $2.9910% (51%)0 .. 20,0005.56%00:01 (00:00)
518 Nightside Aug 6, 2015 $4.9910% (51%)20,000 .. 50,0000%00:00 (00:00)
519 Meridian: New World Sep 26, 2014 $6.9910% (51%/43%)50,000 .. 100,0000.65%00:49 (00:16)
520 Biodrone Battle Jul 16, 2015 $1.9910% (51%)100,000 .. 200,0000%00:00 (00:00)
521 Chronostorm: Siberian Border Nov 20, 2015 $0.99N/A (N/A)0 .. 20,0000%00:00 (00:00)
522 Scapeland Mar 31, 2016 $3.99N/A (N/A)0 .. 20,0000%00:00 (00:00)
523 Guncraft Aug 9, 2013 $14.999% (50%/73%)100,000 .. 200,0000%00:00 (00:00)
524 Defence to death May 11, 2017 $1.99N/A (N/A)50,000 .. 100,0000%00:00 (00:00)
525 Aggression: Europe Under Fire Apr 9, 2014 $9.999% (50%)0 .. 20,0000%00:00 (00:00)
526 No Pineapple Left Behind Feb 18, 2016 $6.99N/A (N/A/59%)0 .. 20,0000%00:00 (00:00)
527 Albedo: Eyes from Outer Space Apr 10, 2015 $14.999% (49%/66%)50,000 .. 100,0000%00:00 (00:00)
528 Kidnapped Aug 4, 2015 $2.999% (49%)100,000 .. 200,0000.28%00:46 (00:15)
529 Star Traders: 4X Empires Dec 16, 2014 $9.99N/A (N/A)0 .. 20,0000%00:00 (00:00)
530 Marvel: Ultimate Alliance 2 Jul 26, 2016 N/A8% (48%)0 .. 20,0000%00:00 (00:00)
531 Synonymy Mar 5, 2015 $1.99N/A (N/A)0 .. 20,0000%00:00 (00:00)
532 Rubber and Lead Sep 4, 2015 $4.998% (48%)20,000 .. 50,0000%00:00 (00:00)
533 The Stalin Subway: Red Veil Oct 24, 2014 $2.998% (47%)20,000 .. 50,0000%00:00 (00:00)
534 Aegis Oct 6, 2016 $2.99N/A (N/A)0 .. 20,0000%00:00 (00:00)
535 Odd||Even Apr 6, 2016 $0.99N/A (N/A)20,000 .. 50,0000%00:00 (00:00)
536 Disposable Heroes Mar 22, 2016 $4.99N/A (N/A)20,000 .. 50,0000%00:00 (00:00)
537 Hero Generations Apr 10, 2015 $5.998% (47%)0 .. 20,0000%00:00 (00:00)
538 Blasting Agent: Ultimate Edition Aug 17, 2016 $2.99N/A (N/A)0 .. 20,0000%00:00 (00:00)
539 Z Steel Soldiers Aug 1, 2014 $12.998% (47%)50,000 .. 100,0000.9%04:16 (01:50)
540 Hell Nov 13, 2014 $29.99N/A (N/A)0 .. 20,0000%00:00 (00:00)
541 HitBox Jan 30, 2017 Free7% (46%)0 .. 20,0002.7%00:58 (00:19)
542 Pride of Nations Jun 7, 2011 $19.997% (46%/70%)20,000 .. 50,0000%00:00 (00:00)
543 Crossfire: Dungeons May 21, 2015 $3.997% (46%)0 .. 20,0000%00:00 (00:00)
544 Megamagic: Wizards of the Neon Age Apr 20, 2016 $9.99N/A (N/A/67%)20,000 .. 50,0000%00:00 (00:00)
545 World War 2: Time of Wrath Jun 6, 2014 $4.99N/A (N/A)20,000 .. 50,0000%00:00 (00:00)
546 PeriAreion Feb 19, 2015 $5.99N/A (N/A)0 .. 20,0000%00:00 (00:00)
547 Carrier Command: Gaea Mission Sep 28, 2012 $32.997% (46%/60%)200,000 .. 500,0000.46%00:48 (00:16)
548 Magic Quest May 6, 2016 $1.99N/A (N/A)50,000 .. 100,0000%00:00 (00:00)
549 ALONE IN SPACE Feb 22, 2016 $9.997% (46%)0 .. 20,0000%00:00 (00:00)
550 Battle Chess: Game of Kings Dec 11, 2015 $29.997% (45%)0 .. 20,0000%00:00 (00:00)
551 The Campaign Series: Fall Weiss May 30, 2014 $14.99N/A (N/A)20,000 .. 50,0000%00:00 (00:00)
552 Impire Feb 14, 2013 $19.997% (45%/45%)100,000 .. 200,0000%00:00 (00:00)
553 Skyward Collapse May 23, 2013 $0.997% (45%/64%)100,000 .. 200,0000%00:00 (00:00)
554 The Bluecoats: North vs South Feb 2, 2015 $4.996% (44%)20,000 .. 50,0000%00:00 (00:00)
555 Commander: Conquest of the Americas Jul 30, 2010 $9.996% (44%/68%)50,000 .. 100,0000%00:00 (00:00)
556 Island Defense Jul 23, 2015 $1.99N/A (N/A)50,000 .. 100,0000%00:00 (00:00)
557 Redemption: Saints And Sinners Nov 18, 2016 $0.996% (44%)50,000 .. 100,0000.38%05:02 (01:40)
558 The Entente Gold Jun 16, 2014 $0.596% (43%)20,000 .. 50,0000%00:00 (00:00)
559 Dungeons Feb 10, 2011 $9.996% (43%/65%)200,000 .. 500,0000%00:00 (00:00)
560 Vendetta - Curse of Raven's Cry Nov 20, 2015 $29.996% (43%)0 .. 20,0004.65%04:00 (02:40)
561 Rulers of Nations Jul 16, 2014 $19.996% (43%/63%)0 .. 20,0000%00:00 (00:00)
562 Sword of the Stars II: Enhanced Edition Nov 30, 2012 $19.996% (42%/65%)100,000 .. 200,0000%00:00 (00:00)
563 Samudai Feb 9, 2015 $2.99N/A (N/A)20,000 .. 50,0000%00:00 (00:00)
564 Burstfire Sep 24, 2015 N/A6% (42%)50,000 .. 100,0000%00:00 (00:00)
565 Nux Aug 15, 2014 $6.99N/A (N/A)200,000 .. 500,0000%00:00 (00:00)
566 Pain Train 2 Mar 16, 2017 $0.695% (41%)20,000 .. 50,0000%00:00 (00:00)
567 Hydraulic Empire Jul 31, 2015 $7.99N/A (N/A)0 .. 20,0000%00:00 (00:00)
568 The Kings' Crusade Oct 8, 2010 $9.995% (40%/71%)50,000 .. 100,0000%00:00 (00:00)
569 Heavy Fire: Shattered Spear Oct 23, 2015 $3.99N/A (N/A)0 .. 20,0000%00:00 (00:00)
570 Strategic War in Europe Mar 21, 2014 $14.995% (40%)20,000 .. 50,0001.08%01:56 (00:38)
571 Knight Adventure Oct 15, 2015 $0.99N/A (N/A)50,000 .. 100,0000%00:00 (00:00)
572 Dark Matter Oct 17, 2013 $9.995% (39%)0 .. 20,0000%00:00 (00:00)
573 Devils & Demons Oct 6, 2015 $9.99N/A (N/A)20,000 .. 50,0000%00:00 (00:00)
574 Mechs & Mercs: Black Talons Jan 9, 2015 $9.995% (39%)0 .. 20,0004.76%01:46 (00:35)
575 Dungeons - The Dark Lord Sep 27, 2011 $19.995% (39%/72%)100,000 .. 200,0000%00:00 (00:00)
576 Wave of Darkness Nov 5, 2015 $29.99N/A (N/A)0 .. 20,0003.57%02:31 (00:50)
577 Risk Jun 10, 2013 $9.995% (39%)20,000 .. 50,0000%00:00 (00:00)
578 Gratuitous Space Battles 2 Apr 16, 2015 $9.995% (39%)20,000 .. 50,0000%00:00 (00:00)
579 Lost in Paradise Aug 20, 2015 $2.994% (38%)20,000 .. 50,0001.43%00:03 (00:01)
580 Infection: Humanity's Last Gasp May 26, 2016 $9.99N/A (N/A)0 .. 20,0000%00:00 (00:00)
581 Control Craft 2 Feb 15, 2016 $2.99N/A (N/A)0 .. 20,0001.67%05:58 (01:59)
582 Dead But Alive! Southern England Oct 2, 2015 $14.99N/A (N/A)0 .. 20,0000%00:00 (00:00)
583 Stellar Impact Apr 12, 2012 $9.994% (37%/74%)50,000 .. 100,0000%00:00 (00:00)
584 Blue Sheep Mar 31, 2016 $1.99N/A (N/A)0 .. 20,0000%00:00 (00:00)
585 Tiamat X May 29, 2015 $1.99N/A (N/A)50,000 .. 100,0000%00:00 (00:00)
586 Zombie Apocalypse: Escape The Undead City Jun 17, 2016 $0.99N/A (N/A)0 .. 20,0000%00:00 (00:00)
587 Shadows of War Jan 2, 2015 $2.993% (35%)20,000 .. 50,0000%00:00 (00:00)
588 Sim Junta Aug 18, 2015 $1.993% (35%)0 .. 20,0000%00:00 (00:00)
589 Urban Empire Jan 20, 2017 $29.993% (35%/62%)50,000 .. 100,0002.38%00:18 (00:06)
590 CTU: Counter Terrorism Unit Apr 22, 2016 $1.49N/A (N/A)0 .. 20,0000%00:00 (00:00)
591 Into the Void Dec 4, 2015 $4.99N/A (N/A)20,000 .. 50,0000%00:00 (00:00)
592 Disciples III - Resurrection Oct 11, 2011 $14.993% (34%/63%)100,000 .. 200,0000%00:00 (00:00)
593 Fallen: A2P Protocol Aug 14, 2015 $9.993% (34%)20,000 .. 50,0000%00:00 (00:00)
594 Arma Tactics Oct 1, 2013 $8.993% (34%/47%)200,000 .. 500,0000.21%00:01 (00:00)
595 Ranger of the jungle Jul 18, 2016 $3.99N/A (N/A)0 .. 20,0000%00:00 (00:00)
596 Jagged Alliance Flashback Oct 21, 2014 $19.993% (33%)20,000 .. 50,0000%00:00 (00:00)
597 Kick-Ass 2 Aug 15, 2014 $19.993% (33%)20,000 .. 50,0000%00:00 (00:00)
598 Ku: Shroud of the Morrigan Mar 17, 2014 $4.99N/A (N/A)20,000 .. 50,0000%00:00 (00:00)
599 Psichodelya Aug 8, 2014 $1.99N/A (N/A)100,000 .. 200,0000%00:00 (00:00)
600 Zombie Zoeds May 20, 2015 $2.992% (31%)200,000 .. 500,0006.25%04:33 (01:31)
601 Evopollution Apr 23, 2014 $4.992% (31%)0 .. 20,0000%00:00 (00:00)
602 A Game of Thrones - Genesis Sep 28, 2011 $9.992% (31%)100,000 .. 200,0000.95%00:17 (00:05)
603 Robotex Nov 19, 2014 $4.992% (30%)100,000 .. 200,0000%00:00 (00:00)
604 Ground Pounders Jul 15, 2014 $4.99N/A (N/A)0 .. 20,0000%00:00 (00:00)
605 Power of Defense Aug 4, 2010 $9.99N/A (N/A)0 .. 20,0000%00:00 (00:00)
606 Defenders of Time Nov 4, 2014 N/AN/A (N/A/55%)0 .. 20,0000%00:00 (00:00)
607 Tank Operations: European Campaign Nov 22, 2013 $19.992% (29%)20,000 .. 50,0000%00:00 (00:00)
608 Zombies on a Plane Mar 25, 2016 $4.99N/A (N/A)0 .. 20,0000%00:00 (00:00)
609 Solar Shifter EX Sep 11, 2015 $4.99N/A (N/A)20,000 .. 50,0000%00:00 (00:00)
610 Gridberd Sep 7, 2015 $1.39N/A (N/A)200,000 .. 500,0000%00:00 (00:00)
611 One Star Apr 17, 2017 $2.991% (25%)50,000 .. 100,0000.34%00:05 (00:01)
612 Hard Truck Apocalypse: Arcade / Ex Machina: Arcade Mar 14, 2014 $4.991% (25%)20,000 .. 50,0000%00:00 (00:00)
613 APOX Jan 20, 2011 $14.991% (23%/48%)20,000 .. 50,0000%00:00 (00:00)
614 Elite vs. Freedom May 31, 2016 $0.841% (23%)0 .. 20,0000%00:00 (00:00)
615 The Asskickers-Steam Edition Feb 6, 2015 $9.99N/A (N/A)0 .. 20,0000%00:00 (00:00)
616 Lords of the Black Sun Sep 12, 2014 $29.991% (21%)20,000 .. 50,0000%00:00 (00:00)
617 Gemini Wars Nov 2, 2012 $14.991% (20%/53%)20,000 .. 50,0000%00:00 (00:00)
618 Human Extinction Simulator Jan 21, 2015 $19.99N/A (N/A)0 .. 20,0000%00:00 (00:00)
619 Star Project Aug 4, 2016 $1.99N/A (N/A)100,000 .. 200,0000%00:00 (00:00)
620 Tryst Sep 14, 2012 $14.99N/A (N/A/50%)0 .. 20,0000%00:00 (00:00)
621 Prison Tycoon 3: Lockdown Jan 29, 2008 $9.991% (17%)20,000 .. 50,0000%00:00 (00:00)
622 Once Bitten, Twice Dead! Jul 7, 2015 $4.99N/A (N/A)20,000 .. 50,0000%00:00 (00:00)
623 Citadels Jul 25, 2013 $14.991% (13%/20%)20,000 .. 50,0000%00:00 (00:00)
624 Bloodbath Jun 16, 2014 $14.99N/A (N/A)0 .. 20,0000%00:00 (00:00)
625 Magnetic By Nature Nov 10, 2014 $9.99N/A (N/A)20,000 .. 50,0000%00:00 (00:00)

Tags over time:

Access restricted.

This feature is only available to users with special access rights. Sorry.

If you want to proceed, you need to register or log in first and then back Steam Spy on Patreon. Look for Indie or Pro pledge.

Don't forget to use the same email as on Steam Spy!

Owners of this game also own:

Access restricted.

This feature is only available to users with special access rights. Sorry.

If you want to proceed, you need to register or log in first and then back Steam Spy on Patreon. Look for Indie or Pro pledge.

Don't forget to use the same email as on Steam Spy!

Playtime distribution:

Access restricted.

This feature is only available to users with special access rights. Sorry.

If you want to proceed, you need to register or log in first and then back Steam Spy on Patreon. Look for Indie or Pro pledge.

Don't forget to use the same email as on Steam Spy!

Playtime (2 weeks):

Access restricted.

This feature is only available to users with special access rights. Sorry.

If you want to proceed, you need to register or log in first and then back Steam Spy on Patreon. Look for Indie or Pro pledge.

Don't forget to use the same email as on Steam Spy!

User reviews:

Login required.

Please register or log in to see this information.